Flag for China Weather past 2 weeks in Changchun, Jilin, China

Now
73 °F

Fog.


Feels Like: 76 °F
Forecast: 58 / 82 °F
Wind: 8 mph from Northeast

Location: Changchun Airport

Current Time: Jul 26, 2014 at 11:12:20 AM

Latest Report: Jul 26, 2014 at 10:00 AM


Visibility: 1 mi

Pressure: 29.80 "Hg

Humidity: 65%

Dew point: 61 °F

Location of ChangchunLocation

Historic Weather in Changchun — Graph

°F

Changchun temperature yesterday

Maximum temperature yesterday: 77 °F (at 1:00 PM)
Minimum temperature yesterday: 57 °F (at 1:00 AM)
Average temperature yesterday: 67 °F

Past Weeks' High & Low Weather Summary

 TemperatureHumidityPressure
High90 °F (Jul 20, 2:00 PM)100% (Jul 14, 5:00 AM)29.89 "Hg (Jul 14, 5:00 AM)
Low57 °F (Jul 25, 1:00 AM)38% (Jul 15, 3:00 PM)29.47 "Hg (Jul 11, 10:00 AM)
Average72 °F76%29.69 "Hg
* Reported Jul 11 10:00 AM — Jul 26 10:00 AM, Changchun, Weather by CustomWeather, © 2014

Note: Actual official high and low records may vary slightly from our data, if they occured in-between our weather recording intervals... More about our weather records

Advertising

Changchun weather history for previous 24 hours

 ConditionsComfort  
Time TempWeatherWind HumidityBarometerVisibility
10:00 AM
Jul 26
73 °FFog.8 mph65%29.80 "Hg1 mi
9:00 AM70 °FFog.6 mph78%29.77 "Hg1 mi
8:00 AM68 °FFog.3 mph83%29.77 "Hg1 mi
7:00 AM64 °FFog.3 mph94%29.77 "Hg1 mi
6:00 AM63 °FFog.1 mph94%29.77 "Hg1 mi
5:00 AM63 °FFog.1 mph94%29.74 "Hg1 mi
4:00 AM63 °FFog.1 mph88%29.74 "Hg1 mi
3:00 AM63 °FFog.1 mph88%29.74 "Hg1 mi
2:00 AM63 °FFog.1 mph88%29.74 "Hg1 mi
1:00 AM64 °FFog.3 mph88%29.74 "Hg1 mi
12:00 AM64 °FFog.1 mph83%29.77 "Hg1 mi
11:00 PM
Jul 25
64 °FFog.3 mph88%29.77 "Hg2 mi
10:00 PM64 °FFog.3 mph88%29.80 "Hg2 mi
9:00 PM68 °FFog.6 mph78%29.83 "Hg2 mi
8:00 PM68 °FFog.3 mph78%29.83 "Hg2 mi
7:00 PM72 °FFog.1 mph65%29.83 "Hg2 mi
6:00 PM72 °FFog.3 mph65%29.80 "Hg2 mi
5:00 PM75 °FFog.3 mph54%29.80 "Hg2 mi
4:00 PM77 °FFog.3 mph42%29.83 "Hg2 mi
3:00 PM77 °FFog.6 mph42%29.86 "Hg3 mi
2:00 PM77 °FFog.6 mph42%29.83 "Hg3 mi
1:00 PM77 °FFog.3 mph51%29.83 "Hg2 mi
12:00 PM75 °FFog.3 mph54%29.86 "Hg2 mi
11:00 AM75 °FFog.3 mph57%29.86 "Hg2 mi
Weather by CustomWeather, © 2014

See weather overviewHow to use our weather pages